Regional Weather Roundup
Issued by NWS

Home | Current Version | Previous Version | Graphics & Text | Print | Product List | Glossary On
Versions: 1 2 3 4 5 6 7 8 9 10 11 12 13 14 15 16 17 18 19 20 21 22 23 24 25 26 27 28 29 30 31 32 33 34 35 36 37 38 39 40 41 42 43 44 45 46 47 48 49 50
000
ASUS43 KFSD 282102
RWRSD

WEATHER ROUNDUP FOR SOUTH DAKOTA
NATIONAL WEATHER SERVICE SIOUX FALLS SD
400 PM CDT SAT MAR 28 2015

NOTE: "FAIR" INDICATES FEW OR NO CLOUDS BELOW 12,000 FEET WITH NO
SIGNIFICANT WEATHER AND/OR OBSTRUCTIONS TO VISIBILITY.


SDZ001>005-009-010-012>017-282200-
NORTHWEST AND NORTH CENTRAL SOUTH DAKOTA

CITY           SKY/WX    TMP DP  RH WIND       PRES   REMARKS
BUFFALO          N/A     78  32  18 SW15G29   29.55F
FAITH            N/A     77  29  17 S17G28    29.65F
MOBRIDGE       SUNNY     65  35  33 S24G32    29.71F
$$

SDZ012>016-024>037-041>051-057-063-072>074-282200-
SOUTHWEST AND SOUTH CENTRAL SOUTH DAKOTA

CITY           SKY/WX    TMP DP  RH WIND       PRES   REMARKS
RAPID CTY ARPT SUNNY     82  25  12 SW23G32   29.65F
PIERRE         SUNNY     71  36  27 SE24G32   29.74F
CUSTER         SUNNY     70  26  19 W16G29    29.80F
ELLSWORTH AFB  SUNNY     83  27  13 W20G29    29.64
PHILIP         SUNNY     81  28  14 S18       29.67F
PINE RIDGE     SUNNY     80  29  15 SW17      29.74F
SPEARFISH      FAIR      75  32  20 SW16G23   29.70F
WINNER         FAIR      72  34  24 S21G28    29.81F
$$

SDZ004>011-016>023-039-040-282200-
NORTHEAST SOUTH DAKOTA

CITY           SKY/WX    TMP DP  RH WIND       PRES   REMARKS
ABERDEEN       SUNNY     56  31  38 S25G31    29.84F
WATERTOWN      SUNNY     51  28  41 S21G29    29.91F
SISSETON         N/A     52  32  46 S23G31    29.89F
$$

SDZ017-020-022-023-036>040-048>070-282200-
SOUTHEAST SOUTH DAKOTA

CITY           SKY/WX    TMP DP  RH WIND       PRES   REMARKS
SIOUX FALLS    SUNNY     52  27  38 S20G32    29.99F
HURON          SUNNY     55  29  36 SE20G31   29.89F
MITCHELL       SUNNY     57  31  37 SE24G33   29.93F
YANKTON        SUNNY     54  30  40 S21G26    29.98F
$$

ABBREVIATIONS USED IN REMARKS
   TC - TEMPERATURE IN CELSIUS
  WCI - WIND CHILL INDEX
   HX - HEAT INDEX
  VSB - VISIBILITY




USA.gov is the U.S. government's official web portal to all federal, state and local government web resources and services.